Theta_e
331 330 327 327 323 322 322 319 318 317 317 317 319 324 323 321 321 322 322 321 319 323 328 328 328 329 330 330 330 330 332 333 333
331 332 328 328 323 322 323 321 324 325 327 328 329 329 328 328 327 326 326 325 323 327 327 329 328 329 328 329 328 328 329 330 330
333 332 329 329 326 325 326 328 328 328 329 329 329 329 328 327 326 326 326 326 325 329 330 328 329 330 329 328 327 328 331 331 332
333 332 331 329 327 328 329 329 329 329 329 329 326 324 323 323 325 326 326 326 326 332 333 332 332 331 331 331 331 330 329 328 329
333 331 329 327 327 328 329 326 325 325 326 326 327 327 327 327 327 327 327 327 327 330 333 334 334 333 333 331 331 331 331 331 330
327 328 328 327 327 327 328 327 327 327 327 327 328 328 328 328 328 327 327 327 330 332 331 331 332 333 332 332 331 330 331 332 333
322 324 326 327 327 327 327 327 327 327 327 328 328 328 328 327 326 325 323 323 327 329 329 329 329 330 330 331 331 330 331 332 332
327 327 327 327 327 327 327 327 328 328 327 327 326 326 324 323 322 320 319 317 321 322 322 324 325 325 326 328 330 331 331 331 332
329 327 326 326 327 328 328 328 327 326 322 320 318 317 316 314 312 311 312 312 312 316 318 319 320 322 323 325 325 325 327 327 327
327 326 327 329 329 327 325 324 322 321 317 313 311 309 307 306 305 305 306 306 307 311 315 316 318 316 317 317 317 318 319 320 320
329 330 328 326 322 320 321 317 313 311 307 305 302 301 301 300 300 303 302 302 301 307 310 310 310 309 310 312 312 312 313 313 314
329 326 322 318 315 313 312 309 305 303 302 301 300 299 298 298 302 299 301 300 299 300 303 304 303 304 305 307 307 308 309 311 312
322 322 316 313 311 307 304 302 300 299 298 298 298 297 297 300 299 298 298 298 297 297 297 297 297 298 301 302 304 305 307 308 308
320 322 314 307 304 303 301 299 297 297 297 297 297 297 297 301 296 296 296 296 295 295 294 292 292 293 297 299 300 303 305 304 304
319 313 305 303 302 301 298 296 295 294 293 295 295 297 297 301 298 297 295 295 294 294 292 291 290 290 293 296 296 299 301 301 301
306 304 302 300 300 297 295 294 293 293 292 293 294 296 295 297 297 296 293 294 293 292 291 290 289 289 290 292 293 296 297 298 299
303 302 300 298 296 294 293 292 292 292 291 293 292 291 293 294 294 293 294 293 293 292 290 288 288 289 290 289 291 293 294 295 297
301 299 297 295 294 292 291 291 291 291 290 292 291 288 289 291 291 292 291 292 290 289 287 287 288 288 288 288 289 291 292 293 295
298 296 294 293 292 291 290 290 290 290 289 290 289 289 290 289 288 290 290 289 287 286 286 288 287 287 288 288 289 290 291 293 294
295 293 292 291 291 290 290 290 289 289 288 288 288 288 288 289 288 287 287 286 286 286 286 286 287 287 287 288 287 289 290 291 292
Wind_Speed
8 3 2 2 2 2 2 2 2 2 2 2 2 3 3 5 6 7 8 8 7 7 7 7 9 10 10 10 10 11 10 12 12
7 6 3 1 1 2 3 2 1 2 3 5 5 6 7 8 9 9 9 8 7 7 8 9 9 10 11 11 11 13 14 15 16
10 8 4 2 1 1 1 1 3 4 4 5 5 5 8 10 10 11 11 10 9 9 9 11 11 11 12 12 14 14 15 17 18
7 6 4 4 2 3 3 4 5 6 6 7 8 7 8 10 11 12 13 13 12 11 12 11 11 13 13 14 15 16 16 17 18
5 5 4 4 3 4 5 5 5 5 5 6 7 8 9 11 13 14 15 15 14 14 14 15 15 15 15 17 17 17 17 17 18
6 6 5 4 3 4 4 4 4 5 5 6 7 10 11 11 11 11 10 10 11 14 17 15 16 17 18 19 20 21 20 20 20
7 6 7 5 4 4 4 5 5 6 7 7 8 9 9 9 10 9 9 10 10 11 13 13 12 12 13 14 16 19 22 23 24
5 5 6 6 5 6 5 5 5 6 6 7 8 8 7 7 8 9 10 10 9 9 10 10 11 10 11 13 16 15 16 18 22
5 3 3 3 3 4 5 3 3 3 5 7 7 7 7 8 9 9 9 8 9 9 10 10 11 11 11 11 12 13 12 12 12
4 3 2 1 1 1 1 2 4 5 6 8 9 9 10 10 11 9 8 7 7 8 9 10 10 12 12 12 13 13 12 12 12
6 5 4 2 2 1 2 4 5 7 8 10 10 10 10 11 9 6 4 5 5 9 11 11 12 13 13 13 13 14 13 14 14
9 8 4 2 1 2 3 5 6 7 9 11 12 11 12 10 3 4 3 5 6 7 9 12 13 15 15 15 16 15 15 13 12
11 8 5 4 2 4 6 8 9 11 14 15 13 13 14 4 2 4 5 6 8 10 11 12 15 16 17 18 17 16 15 15 15
11 6 4 3 4 6 9 10 13 15 19 19 14 16 10 4 5 7 8 7 11 13 13 18 20 21 19 18 18 17 16 18 19
9 9 6 4 5 8 10 10 12 14 19 15 16 10 5 6 2 7 12 9 13 15 19 24 26 24 21 17 19 19 19 20 20
11 10 8 6 8 11 11 10 12 15 21 12 17 7 5 4 8 11 18 10 15 18 24 31 28 28 23 20 24 21 20 21 22
12 10 9 8 9 10 12 14 11 11 19 11 4 4 6 6 20 19 10 16 18 25 29 31 30 24 23 29 24 21 22 24 24
11 10 9 9 10 11 12 13 14 12 13 11 8 3 2 6 6 13 16 11 26 25 32 31 23 26 29 26 26 21 25 24 25
11 10 9 10 10 10 11 11 12 11 11 5 8 3 7 3 5 4 19 9 29 27 31 22 27 27 25 24 23 25 25 27 29
11 10 10 10 9 9 9 10 11 10 7 6 5 5 10 7 4 7 9 26 25 27 21 33 21 25 24 25 28 23 28 28 32
Wind_Direction
180 174 141 46 45 69 121 138 167 238 271 304 322 317 313 305 315 320 320 314 311 289 276 275 271 270 269 273 267 275 277 243 250
200 201 212 325 42 76 75 102 58 340 346 339 318 319 323 312 313 320 323 323 313 289 272 267 270 266 268 273 272 269 271 270 272
210 210 232 275 307 1 20 333 300 295 295 291 296 291 292 304 312 317 321 323 320 297 283 269 273 271 262 266 267 268 267 268 269
191 219 240 273 277 288 315 316 309 302 305 310 312 314 313 309 314 318 320 317 313 297 289 279 272 267 269 259 260 263 266 270 271
195 233 249 262 294 310 317 325 328 320 329 328 327 325 323 323 320 319 317 317 311 301 289 278 271 265 262 258 258 259 261 264 266
213 229 240 260 291 318 332 351 344 328 337 330 331 328 325 324 328 333 331 323 323 318 313 302 295 283 277 276 269 265 264 266 265
228 236 251 257 280 297 315 326 326 321 328 330 329 330 328 328 324 328 326 325 327 325 328 335 333 331 324 319 303 281 267 266 268
232 254 261 261 267 286 304 314 325 325 329 323 326 327 328 324 320 322 322 325 340 341 341 344 348 346 338 332 325 304 298 289 285
255 250 256 273 276 291 294 311 335 314 328 332 338 336 328 323 323 325 323 325 333 353 355 355 355 355 360 5 9 19 21 15 9
252 244 156 142 195 351 38 348 325 317 325 337 335 329 326 325 325 324 324 320 337 6 16 13 17 12 9 4 2 2 2 4 357
175 156 136 115 97 338 327 336 338 335 337 339 339 335 333 333 328 330 356 7 19 34 34 31 23 11 3 359 354 350 344 340 337
160 143 140 105 46 8 358 354 335 333 342 343 343 339 337 334 338 21 49 38 31 31 25 22 12 3 356 349 342 336 335 336 334
158 136 124 86 21 11 5 356 347 349 349 348 346 339 334 330 37 55 36 32 19 11 4 355 346 346 346 340 336 330 328 326 323
147 131 115 75 36 24 21 5 360 355 349 347 341 331 321 196 75 46 25 16 8 0 357 349 342 339 341 336 332 326 319 319 316
135 127 117 81 45 34 25 18 16 11 355 345 342 337 333 204 242 340 354 337 349 349 343 341 337 337 335 329 332 322 314 313 310
130 119 101 69 40 37 33 31 22 17 9 1 346 356 357 265 279 324 324 325 339 341 334 333 332 330 329 324 327 317 313 311 308
122 111 91 65 53 49 43 38 33 27 22 11 351 2 340 10 317 324 317 320 321 319 325 329 327 326 323 320 318 313 311 309 306
114 98 80 69 57 55 48 42 40 27 26 39 40 357 310 328 302 303 304 318 312 317 324 325 324 320 315 316 317 310 310 307 303
105 92 81 70 65 61 50 41 39 35 31 25 5 345 291 312 319 307 306 304 315 317 319 318 315 314 317 315 311 308 306 305 303
98 88 78 73 67 59 48 38 31 26 19 7 345 334 314 286 260 303 307 312 312 312 314 307 316 316 314 311 310 305 303 301 301